| time (UTC) | temp F | wind direction | speed MPH | gust MPH | rain 1hr in | rain 24hr in | rain mn in | humidity % | barometer mb |
| 20260505223900 | 79 | 292 | 4.0 | 4.0 | 0.00 | 0.00 | 0.00 | 31 | 1007.8 |
| 20260505223357 | 78 | 245 | 6.0 | 7.0 | 0.00 | 0.00 | 0.00 | 34 | 1007.7 |
| 20260505222853 | 78 | 219 | 4.0 | 6.0 | 0.00 | 0.00 | 0.00 | 34 | 1007.8 |
| 20260505222350 | 79 | 221 | 2.0 | 3.0 | 0.00 | 0.00 | 0.00 | 34 | 1007.9 |
| 20260505221847 | 80 | 355 | 9.0 | 9.0 | 0.00 | 0.00 | 0.00 | 31 | 1007.8 |
| 20260505221344 | 80 | 189 | 2.0 | 3.0 | 0.00 | 0.00 | 0.00 | 32 | 1007.8 |
| 20260505220840 | 80 | 341 | 4.0 | 8.0 | 0.00 | 0.00 | 0.00 | 32 | 1007.9 |
| 20260505220338 | 79 | 175 | 2.0 | 2.0 | 0.00 | 0.00 | 0.00 | 31 | 1007.9 |
| 20260505215835 | 80 | 249 | 4.0 | 6.0 | 0.00 | 0.00 | 0.00 | 32 | 1008.0 |
| 20260505215333 | 79 | 246 | 5.0 | 7.0 | 0.00 | 0.00 | 0.00 | 33 | 1007.9 |
| 20260505214831 | 78 | 260 | 8.0 | 10.0 | 0.00 | 0.00 | 0.00 | 33 | 1007.9 |
| 20260505214328 | 80 | 316 | 5.0 | 6.0 | 0.00 | 0.00 | 0.00 | 31 | 1007.8 |
| 20260505213825 | 80 | 192 | 2.0 | 3.0 | 0.00 | 0.00 | 0.00 | 32 | 1007.9 |
| 20260505213323 | 81 | 220 | 6.0 | 8.0 | 0.00 | 0.00 | 0.00 | 31 | 1008.1 |
| 20260505212819 | 80 | 338 | 8.0 | 9.0 | 0.00 | 0.00 | 0.00 | 31 | 1008.0 |
| 20260505212316 | 80 | 220 | 2.0 | 2.0 | 0.00 | 0.00 | 0.00 | 31 | 1007.8 |
| 20260505211812 | 78 | 293 | 10.0 | 13.0 | 0.00 | 0.00 | 0.00 | 34 | 1007.9 |
| 20260505211310 | 79 | 249 | 11.0 | 14.0 | 0.00 | 0.00 | 0.00 | 34 | 1008.1 |
| 20260505210806 | 79 | 304 | 6.0 | 7.0 | 0.00 | 0.00 | 0.00 | 34 | 1007.9 |
| 20260505210303 | 79 | 258 | 8.0 | 10.0 | 0.00 | 0.00 | 0.00 | 33 | 1007.9 |
| 20260505205800 | 79 | 277 | 9.0 | 9.0 | 0.00 | 0.00 | 0.00 | 34 | 1007.9 |
| 20260505205259 | 78 | 285 | 11.0 | 13.0 | 0.00 | 0.00 | 0.00 | 34 | 1007.8 |
| 20260505204754 | 78 | 252 | 10.0 | 11.0 | 0.00 | 0.00 | 0.00 | 35 | 1007.8 |
| 20260505204253 | 78 | 192 | 2.0 | 3.0 | 0.00 | 0.00 | 0.00 | 38 | 1007.6 |
| 20260505203749 | 78 | 241 | 4.0 | 4.0 | 0.00 | 0.00 | 0.00 | 38 | 1007.8 |
| 20260505203246 | 76 | 200 | 5.0 | 6.0 | 0.00 | 0.00 | 0.00 | 40 | 1007.9 |
| 20260505202742 | 76 | 265 | 9.0 | 13.0 | 0.00 | 0.00 | 0.00 | 39 | 1008.1 |
| 20260505202239 | 76 | 251 | 9.0 | 11.0 | 0.00 | 0.00 | 0.00 | 41 | 1008.1 |
| 20260505201735 | 77 | 275 | 6.0 | 8.0 | 0.00 | 0.00 | 0.00 | 41 | 1008.2 |
| 20260505201233 | 76 | 254 | 7.0 | 8.0 | 0.00 | 0.00 | 0.00 | 40 | 1008.1 |
| 20260505200731 | 76 | 277 | 5.0 | 7.0 | 0.00 | 0.00 | 0.00 | 41 | 1008.1 |
| 20260505200228 | 75 | 211 | 8.0 | 9.0 | 0.00 | 0.00 | 0.00 | 42 | 1008.2 |
| 20260505195723 | 76 | 268 | 9.0 | 10.0 | 0.00 | 0.00 | 0.00 | 42 | 1008.5 |
| 20260505195221 | 76 | 276 | 11.0 | 11.0 | 0.00 | 0.00 | 0.00 | 42 | 1008.6 |
| 20260505194718 | 75 | 249 | 7.0 | 11.0 | 0.00 | 0.00 | 0.00 | 41 | 1008.6 |
| 20260505194214 | 75 | 278 | 9.0 | 10.0 | 0.00 | 0.00 | 0.00 | 42 | 1008.5 |
| 20260505193710 | 74 | 267 | 6.0 | 7.0 | 0.00 | 0.00 | 0.00 | 43 | 1008.5 |
| 20260505193208 | 74 | 251 | 8.0 | 10.0 | 0.00 | 0.00 | 0.00 | 43 | 1008.6 |
| 20260505192707 | 73 | 258 | 6.0 | 8.0 | 0.00 | 0.00 | 0.00 | 44 | 1008.7 |
| 20260505192203 | 74 | 272 | 7.0 | 9.0 | 0.00 | 0.00 | 0.00 | 43 | 1008.8 |
| 20260505191702 | 74 | 266 | 7.0 | 8.0 | 0.00 | 0.00 | 0.00 | 43 | 1008.8 |
| 20260505191200 | 75 | 270 | 7.0 | 8.0 | 0.00 | 0.00 | 0.00 | 42 | 1008.8 |
| 20260505190656 | 73 | 208 | 1.0 | 1.0 | 0.00 | 0.00 | 0.00 | 43 | 1008.9 |
| 20260505190155 | 74 | 250 | 6.0 | 9.0 | 0.00 | 0.00 | 0.00 | 44 | 1008.9 |
| 20260505185652 | 73 | 220 | 3.0 | 4.0 | 0.00 | 0.00 | 0.00 | 44 | 1008.8 |
| 20260505185149 | 72 | 204 | 2.0 | 2.0 | 0.00 | 0.00 | 0.00 | 44 | 1009.0 |
| 20260505184645 | 72 | 248 | 4.0 | 6.0 | 0.00 | 0.00 | 0.00 | 45 | 1009.0 |
| 20260505184142 | 73 | 189 | 6.0 | 8.0 | 0.00 | 0.00 | 0.00 | 46 | 1009.0 |
| 20260505183639 | 71 | 267 | 6.0 | 7.0 | 0.00 | 0.00 | 0.00 | 45 | 1009.1 |
| 20260505183137 | 71 | 205 | 2.0 | 2.0 | 0.00 | 0.00 | 0.00 | 46 | 1009.0 |
| 20260505182633 | 71 | 284 | 4.0 | 4.0 | 0.00 | 0.00 | 0.00 | 46 | 1008.9 |
| 20260505182130 | 70 | 207 | 4.0 | 6.0 | 0.00 | 0.00 | 0.00 | 47 | 1009.1 |
| 20260505181626 | 70 | 196 | 5.0 | 7.0 | 0.00 | 0.00 | 0.00 | 47 | 1009.2 |
| 20260505181124 | 70 | 317 | 5.0 | 8.0 | 0.00 | 0.00 | 0.00 | 47 | 1009.2 |
| 20260505180620 | 70 | 297 | 5.0 | 6.0 | 0.00 | 0.00 | 0.00 | 48 | 1009.1 |
| 20260505180117 | 69 | 309 | 3.0 | 3.0 | 0.00 | 0.00 | 0.00 | 49 | 1009.1 |
| 20260505175613 | 68 | 205 | 1.0 | 2.0 | 0.00 | 0.00 | 0.00 | 49 | 1009.1 |
| 20260505175110 | 68 | 241 | 4.0 | 6.0 | 0.00 | 0.00 | 0.00 | 49 | 1009.3 |
| 20260505174606 | 68 | 202 | 3.0 | 4.0 | 0.00 | 0.00 | 0.00 | 49 | 1009.1 |
| 20260505174102 | 68 | 259 | 7.0 | 8.0 | 0.00 | 0.00 | 0.00 | 48 | 1009.3 |
| 20260505173559 | 69 | 249 | 2.0 | 3.0 | 0.00 | 0.00 | 0.00 | 49 | 1009.2 |
| 20260505173056 | 68 | 200 | 5.0 | 6.0 | 0.00 | 0.00 | 0.00 | 49 | 1009.6 |
| 20260505172554 | 67 | 206 | 1.0 | 1.0 | 0.00 | 0.00 | 0.00 | 51 | 1009.2 |
| 20260505172050 | 67 | 183 | 1.0 | 2.0 | 0.00 | 0.00 | 0.00 | 51 | 1009.4 |
| 20260505171545 | 66 | 242 | 3.0 | 4.0 | 0.00 | 0.00 | 0.00 | 52 | 1009.4 |
| 20260505171042 | 67 | 257 | 4.0 | 6.0 | 0.00 | 0.00 | 0.00 | 52 | 1009.2 |
| 20260505170539 | 66 | 232 | 2.0 | 2.0 | 0.00 | 0.00 | 0.00 | 53 | 1009.4 |
| 20260505170036 | 66 | 207 | 2.0 | 2.0 | 0.00 | 0.00 | 0.00 | 53 | 1009.6 |
| 20260505165531 | 65 | 208 | 2.0 | 2.0 | 0.00 | 0.00 | 0.00 | 54 | 1009.3 |
| 20260505165026 | 64 | 272 | 4.0 | 4.0 | 0.00 | 0.00 | 0.00 | 54 | 1009.6 |
| 20260505164523 | 64 | 241 | 3.0 | 3.0 | 0.00 | 0.00 | 0.00 | 55 | 1009.6 |
| 20260505164021 | 63 | 215 | 2.0 | 3.0 | 0.00 | 0.00 | 0.00 | 56 | 1009.4 |
| 20260505163519 | 63 | 194 | 1.0 | 1.0 | 0.00 | 0.00 | 0.00 | 55 | 1009.6 |
| 20260505163016 | 62 | 197 | 1.0 | 2.0 | 0.00 | 0.00 | 0.00 | 56 | 1009.4 |
| 20260505162509 | 62 | 210 | 2.0 | 2.0 | 0.00 | 0.00 | 0.00 | 57 | 1009.7 |
| 20260505162006 | 63 | 189 | 0.0 | 1.0 | 0.00 | 0.00 | 0.00 | 55 | 1009.7 |
| 20260505161502 | 63 | 183 | 0.0 | 1.0 | 0.00 | 0.00 | 0.00 | 55 | 1009.8 |
| 20260505160959 | 62 | 190 | 0.0 | 1.0 | 0.00 | 0.00 | 0.00 | 54 | 1009.7 |
| 20260505160458 | 60 | 54 | 3.0 | 3.0 | 0.00 | 0.00 | 0.00 | 58 | 1009.7 |
| 20260505152934 | 56 | 188 | 0.0 | 0.0 | 0.00 | 0.00 | 0.00 | 61 | 1009.7 |
| 20260505152432 | 55 | 188 | 1.0 | 1.0 | 0.00 | 0.00 | 0.00 | 63 | 1009.8 |
| 20260505151932 | 57 | 200 | 3.0 | 3.0 | 0.00 | 0.00 | 0.00 | 61 | 1009.7 |
| 20260505151427 | 56 | 177 | 1.0 | 1.0 | 0.00 | 0.00 | 0.00 | 62 | 1009.8 |
| 20260505150925 | 56 | 168 | 2.0 | 2.0 | 0.00 | 0.00 | 0.00 | 61 | 1009.7 |
| 20260505150422 | 55 | 175 | 1.0 | 2.0 | 0.00 | 0.00 | 0.00 | 61 | 1009.8 |
| 20260505140352 | 48 | 161 | 1.0 | 2.0 | 0.00 | 0.00 | 0.00 | 71 | 1009.3 |
| 20260505124805 | 44 | 174 | 1.0 | 2.0 | 0.00 | 0.00 | 0.00 | 76 | 1008.6 |
| 20260505124302 | 44 | 171 | 1.0 | 2.0 | 0.00 | 0.00 | 0.00 | 76 | 1008.7 |
| 20260505123758 | 44 | 173 | 1.0 | 2.0 | 0.00 | 0.00 | 0.00 | 77 | 1008.7 |
| 20260505123255 | 44 | 177 | 1.0 | 2.0 | 0.00 | 0.00 | 0.00 | 77 | 1008.7 |
| 20260505122751 | 44 | 182 | 0.0 | 0.0 | 0.00 | 0.00 | 0.00 | 76 | 1008.6 |
| 20260505122249 | 45 | 180 | 1.0 | 1.0 | 0.00 | 0.00 | 0.00 | 75 | 1008.6 |
| 20260505121745 | 45 | 177 | 1.0 | 1.0 | 0.00 | 0.00 | 0.00 | 74 | 1008.5 |
| 20260505121242 | 45 | 144 | 2.0 | 3.0 | 0.00 | 0.00 | 0.00 | 73 | 1008.6 |
| 20260505120738 | 45 | 173 | 1.0 | 2.0 | 0.00 | 0.00 | 0.00 | 73 | 1008.4 |
| 20260505120234 | 45 | 179 | 0.0 | 1.0 | 0.00 | 0.00 | 0.00 | 73 | 1008.4 |
| 20260505115733 | 46 | 183 | 0.0 | 0.0 | 0.00 | 0.00 | 0.00 | 73 | 1008.5 |
| 20260505115231 | 46 | 172 | 2.0 | 2.0 | 0.00 | 0.00 | 0.00 | 72 | 1008.2 |
| 20260505114728 | 46 | 175 | 2.0 | 2.0 | 0.00 | 0.00 | 0.00 | 72 | 1008.5 |
| 20260505114224 | 46 | 182 | 1.0 | 2.0 | 0.00 | 0.00 | 0.00 | 72 | 1008.2 |
| 20260505113720 | 46 | 161 | 2.0 | 3.0 | 0.00 | 0.00 | 0.00 | 72 | 1008.0 |
| 20260505113217 | 46 | 177 | 1.0 | 1.0 | 0.00 | 0.00 | 0.00 | 72 | 1008.4 |
| 20260505112714 | 46 | 180 | 1.0 | 1.0 | 0.00 | 0.00 | 0.00 | 71 | 1008.2 |
| 20260505112212 | 46 | 166 | 1.0 | 1.0 | 0.00 | 0.00 | 0.00 | 71 | 1008.0 |
| 20260505111711 | 46 | 178 | 2.0 | 2.0 | 0.00 | 0.00 | 0.00 | 72 | 1008.0 |
| 20260505111207 | 46 | 166 | 1.0 | 1.0 | 0.00 | 0.00 | 0.00 | 72 | 1008.1 |
| 20260505110703 | 46 | 182 | 2.0 | 2.0 | 0.00 | 0.00 | 0.00 | 72 | 1008.0 |
| 20260505110201 | 46 | 176 | 2.0 | 2.0 | 0.00 | 0.00 | 0.00 | 72 | 1008.1 |
| 20260505102137 | 48 | 173 | 1.0 | 1.0 | 0.00 | 0.00 | 0.00 | 69 | 1007.8 |
| 20260505101635 | 48 | 184 | 0.0 | 0.0 | 0.00 | 0.00 | 0.00 | 69 | 1007.6 |
| 20260505101131 | 48 | 180 | 1.0 | 1.0 | 0.00 | 0.00 | 0.00 | 69 | 1007.8 |
| 20260505100627 | 48 | 174 | 1.0 | 2.0 | 0.00 | 0.00 | 0.00 | 69 | 1007.9 |
| 20260505100124 | 48 | 170 | 2.0 | 2.0 | 0.00 | 0.00 | 0.00 | 68 | 1008.0 |
| 20260505095620 | 48 | 167 | 3.0 | 3.0 | 0.00 | 0.00 | 0.00 | 66 | 1007.9 |
| 20260505095117 | 48 | 166 | 1.0 | 2.0 | 0.00 | 0.00 | 0.00 | 65 | 1007.8 |
| 20260505094614 | 48 | 169 | 2.0 | 2.0 | 0.00 | 0.00 | 0.00 | 65 | 1007.6 |
| 20260505094110 | 48 | 175 | 2.0 | 2.0 | 0.00 | 0.00 | 0.00 | 64 | 1007.7 |
| 20260505093606 | 49 | 176 | 1.0 | 1.0 | 0.00 | 0.00 | 0.00 | 64 | 1007.8 |
| 20260505093104 | 49 | 174 | 1.0 | 1.0 | 0.00 | 0.00 | 0.00 | 63 | 1007.8 |
| 20260505092601 | 49 | 165 | 2.0 | 2.0 | 0.00 | 0.00 | 0.00 | 63 | 1007.7 |
| 20260505092100 | 50 | 164 | 2.0 | 2.0 | 0.00 | 0.00 | 0.00 | 64 | 1007.7 |
| 20260505091556 | 49 | 178 | 1.0 | 1.0 | 0.00 | 0.00 | 0.00 | 64 | 1007.6 |
| 20260505091054 | 50 | 171 | 1.0 | 1.0 | 0.00 | 0.00 | 0.00 | 63 | 1007.6 |
| 20260505090552 | 50 | 171 | 1.0 | 1.0 | 0.00 | 0.00 | 0.00 | 64 | 1007.6 |
| 20260505090050 | 50 | 171 | 1.0 | 2.0 | 0.00 | 0.00 | 0.00 | 63 | 1007.7 |
| 20260505085547 | 50 | 175 | 1.0 | 1.0 | 0.00 | 0.00 | 0.00 | 61 | 1007.7 |
| 20260505085045 | 50 | 179 | 1.0 | 1.0 | 0.00 | 0.00 | 0.00 | 61 | 1007.8 |
| 20260505084543 | 50 | 173 | 1.0 | 1.0 | 0.00 | 0.00 | 0.00 | 60 | 1007.7 |
| 20260505084041 | 51 | 178 | 0.0 | 0.0 | 0.00 | 0.00 | 0.00 | 59 | 1007.8 |
| 20260505083537 | 51 | 194 | 0.0 | 1.0 | 0.00 | 0.00 | 0.00 | 59 | 1007.9 |
| 20260505083034 | 52 | 186 | 0.0 | 0.0 | 0.00 | 0.00 | 0.00 | 58 | 1007.7 |
| 20260505082530 | 51 | 154 | 1.0 | 1.0 | 0.00 | 0.00 | 0.00 | 59 | 1007.6 |
| 20260505082027 | 51 | 187 | 0.0 | 0.0 | 0.00 | 0.00 | 0.00 | 57 | 1007.7 |
| 20260505081523 | 52 | 213 | 1.0 | 2.0 | 0.00 | 0.00 | 0.00 | 56 | 1007.6 |
| 20260505081021 | 52 | 180 | 1.0 | 1.0 | 0.00 | 0.00 | 0.00 | 55 | 1007.6 |
| 20260505080517 | 52 | 179 | 1.0 | 1.0 | 0.00 | 0.00 | 0.00 | 56 | 1007.7 |
| 20260505080014 | 52 | 171 | 2.0 | 2.0 | 0.00 | 0.00 | 0.00 | 56 | 1007.6 |
| 20260505075509 | 53 | 171 | 0.0 | 0.0 | 0.00 | 0.00 | 0.00 | 55 | 1007.6 |
| 20260505075006 | 53 | 171 | 1.0 | 1.0 | 0.00 | 0.00 | 0.00 | 54 | 1007.4 |
| 20260505074504 | 53 | 171 | 1.0 | 1.0 | 0.00 | 0.00 | 0.00 | 54 | 1007.4 |
| 20260505074001 | 54 | 168 | 2.0 | 2.0 | 0.00 | 0.00 | 0.00 | 54 | 1007.5 |
| 20260505073458 | 54 | 176 | 0.0 | 1.0 | 0.00 | 0.00 | 0.00 | 54 | 1007.5 |
| 20260505072955 | 55 | 180 | 0.0 | 0.0 | 0.00 | 0.00 | 0.00 | 54 | 1007.4 |
| 20260505072451 | 55 | 180 | 0.0 | 0.0 | 0.00 | 0.00 | 0.00 | 53 | 1007.5 |
| 20260505071948 | 55 | 180 | 0.0 | 1.0 | 0.00 | 0.00 | 0.00 | 53 | 1007.5 |
| 20260505071444 | 55 | 194 | 0.0 | 0.0 | 0.00 | 0.00 | 0.00 | 52 | 1007.5 |
| 20260505070942 | 56 | 194 | 0.0 | 0.0 | 0.00 | 0.00 | 0.00 | 51 | 1007.7 |
| 20260505070438 | 57 | 176 | 0.0 | 1.0 | 0.00 | 0.00 | 0.00 | 50 | 1007.4 |
| 20260505065934 | 57 | 177 | 1.0 | 1.0 | 0.00 | 0.00 | 0.00 | 49 | 1007.7 |
| 20260505065431 | 58 | 178 | 1.0 | 1.0 | 0.00 | 0.00 | 0.00 | 48 | 1007.6 |
| 20260505064928 | 58 | 178 | 0.0 | 0.0 | 0.00 | 0.00 | 0.00 | 47 | 1007.3 |
| 20260505064425 | 59 | 170 | 1.0 | 2.0 | 0.00 | 0.00 | 0.00 | 46 | 1007.4 |
| 20260505063923 | 59 | 173 | 1.0 | 1.0 | 0.00 | 0.00 | 0.00 | 46 | 1007.1 |
| 20260505063419 | 61 | 186 | 0.0 | 0.0 | 0.00 | 0.00 | 0.00 | 44 | 1007.2 |
| 20260505062916 | 62 | 201 | 0.0 | 1.0 | 0.00 | 0.00 | 0.00 | 43 | 1007.2 |
| 20260505062413 | 61 | 14 | 4.0 | 4.0 | 0.00 | 0.00 | 0.00 | 43 | 1006.9 |
| 20260505061909 | 61 | 205 | 2.0 | 2.0 | 0.00 | 0.00 | 0.00 | 42 | 1007.1 |
| 20260505061408 | 62 | 200 | 1.0 | 1.0 | 0.00 | 0.00 | 0.00 | 42 | 1006.9 |
| 20260505060905 | 62 | 205 | 1.0 | 2.0 | 0.00 | 0.00 | 0.00 | 41 | 1007.2 |
| 20260505060402 | 63 | 201 | 1.0 | 1.0 | 0.00 | 0.00 | 0.00 | 40 | 1007.2 |
| 20260505055858 | 63 | 206 | 3.0 | 3.0 | 0.00 | 0.00 | 0.00 | 40 | 1006.9 |
| 20260505055354 | 63 | 199 | 1.0 | 2.0 | 0.00 | 0.00 | 0.00 | 40 | 1007.1 |
| 20260505054851 | 63 | 200 | 2.0 | 3.0 | 0.00 | 0.00 | 0.00 | 40 | 1007.1 |
| 20260505054348 | 63 | 243 | 3.0 | 3.0 | 0.00 | 0.00 | 0.00 | 40 | 1007.1 |
| 20260505053847 | 62 | 216 | 4.0 | 4.0 | 0.00 | 0.00 | 0.00 | 42 | 1006.9 |
| 20260505053343 | 62 | 224 | 3.0 | 3.0 | 0.00 | 0.00 | 0.00 | 42 | 1006.9 |
| 20260505052840 | 63 | 205 | 2.0 | 2.0 | 0.00 | 0.00 | 0.00 | 42 | 1006.9 |
| 20260505052337 | 63 | 209 | 2.0 | 2.0 | 0.00 | 0.00 | 0.00 | 42 | 1006.9 |
| 20260505051834 | 63 | 194 | 0.0 | 0.0 | 0.00 | 0.00 | 0.00 | 42 | 1006.9 |
| 20260505051331 | 63 | 199 | 2.0 | 2.0 | 0.00 | 0.00 | 0.00 | 43 | 1006.8 |
| 20260505050829 | 63 | 185 | 1.0 | 1.0 | 0.00 | 0.00 | 0.00 | 42 | 1006.9 |
| 20260505050328 | 64 | 200 | 2.0 | 2.0 | 0.00 | 0.00 | 0.00 | 42 | 1006.8 |
| 20260505041757 | 66 | 202 | 4.0 | 6.0 | 0.00 | 0.00 | 0.00 | 40 | 1006.1 |
| 20260505041255 | 66 | 287 | 6.0 | 7.0 | 0.00 | 0.00 | 0.00 | 40 | 1005.9 |
| 20260505040752 | 66 | 240 | 5.0 | 7.0 | 0.00 | 0.00 | 0.00 | 40 | 1005.9 |
| 20260505040249 | 66 | 198 | 4.0 | 6.0 | 0.00 | 0.00 | 0.00 | 39 | 1006.0 |
| 20260505035746 | 66 | 240 | 3.0 | 4.0 | 0.00 | 0.00 | 0.00 | 39 | 1005.9 |
| 20260505035242 | 67 | 202 | 3.0 | 4.0 | 0.00 | 0.00 | 0.00 | 38 | 1005.5 |
| 20260505034739 | 67 | 214 | 1.0 | 2.0 | 0.00 | 0.00 | 0.00 | 38 | 1005.9 |
| 20260505034236 | 68 | 321 | 4.0 | 6.0 | 0.00 | 0.00 | 0.00 | 38 | 1005.5 |
| 20260505033733 | 68 | 301 | 5.0 | 7.0 | 0.00 | 0.00 | 0.00 | 37 | 1005.7 |
| 20260505033230 | 68 | 231 | 3.0 | 4.0 | 0.00 | 0.00 | 0.00 | 37 | 1005.4 |
| 20260505032728 | 69 | 317 | 4.0 | 4.0 | 0.00 | 0.00 | 0.00 | 36 | 1005.4 |
| 20260505032224 | 69 | 333 | 6.0 | 8.0 | 0.00 | 0.00 | 0.00 | 36 | 1005.2 |
| 20260505031721 | 69 | 215 | 7.0 | 9.0 | 0.00 | 0.00 | 0.00 | 36 | 1005.1 |
| 20260505031218 | 70 | 189 | 6.0 | 8.0 | 0.00 | 0.00 | 0.00 | 36 | 1004.8 |
| 20260505030715 | 70 | 269 | 5.0 | 9.0 | 0.00 | 0.00 | 0.00 | 36 | 1004.8 |
| 20260505030211 | 71 | 246 | 8.0 | 11.0 | 0.00 | 0.00 | 0.00 | 35 | 1004.9 |
| 20260505025707 | 71 | 280 | 5.0 | 6.0 | 0.00 | 0.00 | 0.00 | 34 | 1004.7 |
| 20260505025205 | 72 | 330 | 10.0 | 13.0 | 0.00 | 0.00 | 0.00 | 33 | 1004.5 |
| 20260505024703 | 72 | 209 | 7.0 | 13.0 | 0.00 | 0.00 | 0.00 | 32 | 1004.5 |
| 20260505024159 | 73 | 230 | 4.0 | 4.0 | 0.00 | 0.00 | 0.00 | 33 | 1004.5 |
| 20260505023657 | 73 | 342 | 7.0 | 11.0 | 0.00 | 0.00 | 0.00 | 33 | 1004.2 |
| 20260505023154 | 73 | 224 | 5.0 | 8.0 | 0.00 | 0.00 | 0.00 | 33 | 1004.2 |
| 20260505022652 | 74 | 200 | 8.0 | 9.0 | 0.00 | 0.00 | 0.00 | 33 | 1004.2 |
| 20260505022149 | 75 | 290 | 9.0 | 11.0 | 0.00 | 0.00 | 0.00 | 33 | 1004.1 |
| 20260505021645 | 75 | 295 | 10.0 | 13.0 | 0.00 | 0.00 | 0.00 | 32 | 1004.2 |
| 20260505021142 | 75 | 247 | 4.0 | 6.0 | 0.00 | 0.00 | 0.00 | 33 | 1004.2 |
| 20260505020637 | 76 | 249 | 7.0 | 9.0 | 0.00 | 0.00 | 0.00 | 33 | 1004.1 |
| 20260505020134 | 77 | 284 | 9.0 | 13.0 | 0.00 | 0.00 | 0.00 | 32 | 1004.3 |
| 20260505015631 | 77 | 220 | 4.0 | 6.0 | 0.00 | 0.00 | 0.00 | 32 | 1004.0 |
| 20260505015128 | 77 | 326 | 6.0 | 8.0 | 0.00 | 0.00 | 0.00 | 32 | 1004.2 |
| 20260505014624 | 78 | 286 | 9.0 | 13.0 | 0.00 | 0.00 | 0.00 | 32 | 1004.1 |
| 20260505014121 | 78 | 341 | 7.0 | 11.0 | 0.00 | 0.00 | 0.00 | 30 | 1004.2 |
| 20260505013619 | 78 | 186 | 4.0 | 6.0 | 0.00 | 0.00 | 0.00 | 30 | 1004.0 |
| 20260505013116 | 78 | 290 | 7.0 | 9.0 | 0.00 | 0.00 | 0.00 | 29 | 1004.0 |
| 20260505012614 | 78 | 315 | 3.0 | 4.0 | 0.00 | 0.00 | 0.00 | 30 | 1004.2 |
| 20260505012111 | 77 | 351 | 5.0 | 7.0 | 0.00 | 0.00 | 0.00 | 30 | 1004.1 |
| 20260505011606 | 78 | 205 | 3.0 | 4.0 | 0.00 | 0.00 | 0.00 | 30 | 1004.4 |
| 20260505011104 | 78 | 282 | 6.0 | 8.0 | 0.00 | 0.00 | 0.00 | 30 | 1004.0 |
| 20260505010605 | 78 | 321 | 4.0 | 6.0 | 0.00 | 0.00 | 0.00 | 30 | 1004.2 |
| 20260505005558 | 78 | 291 | 6.0 | 7.0 | 0.00 | 0.00 | 0.00 | 31 | 1004.2 |
| 20260505005055 | 77 | 280 | 3.0 | 4.0 | 0.00 | 0.00 | 0.00 | 32 | 1004.4 |
| 20260505004552 | 77 | 17 | 6.0 | 8.0 | 0.00 | 0.00 | 0.00 | 32 | 1004.2 |
| 20260505004049 | 77 | 282 | 10.0 | 13.0 | 0.00 | 0.00 | 0.00 | 31 | 1004.2 |
| 20260505003546 | 77 | 298 | 4.0 | 4.0 | 0.00 | 0.00 | 0.00 | 33 | 1004.2 |
| 20260505003043 | 77 | 240 | 3.0 | 4.0 | 0.00 | 0.00 | 0.00 | 33 | 1004.3 |
| 20260505002543 | 77 | 246 | 4.0 | 6.0 | 0.00 | 0.00 | 0.00 | 32 | 1004.2 |
| 20260505002043 | 77 | 233 | 5.0 | 8.0 | 0.00 | 0.00 | 0.00 | 32 | 1004.1 |
| 20260505001540 | 78 | 236 | 6.0 | 7.0 | 0.00 | 0.00 | 0.00 | 32 | 1004.2 |
| 20260505001037 | 80 | 339 | 5.0 | 10.0 | 0.00 | 0.00 | 0.00 | 31 | 1004.2 |
| 20260505000534 | 80 | 207 | 4.0 | 6.0 | 0.00 | 0.00 | 0.00 | 28 | 1004.3 |
| 20260505000032 | 80 | 255 | 4.0 | 4.0 | 0.00 | 0.00 | 0.00 | 29 | 1004.3 |
| 20260504235528 | 80 | 236 | 6.0 | 8.0 | 0.00 | 0.00 | 0.00 | 29 | 1004.4 |
| 20260504235025 | 80 | 285 | 3.0 | 7.0 | 0.00 | 0.00 | 0.00 | 29 | 1004.3 |
| 20260504234522 | 82 | 212 | 4.0 | 6.0 | 0.00 | 0.00 | 0.00 | 29 | 1004.3 |
| 20260504234019 | 82 | 281 | 5.0 | 7.0 | 0.00 | 0.00 | 0.00 | 28 | 1004.4 |
| 20260504233514 | 81 | 194 | 4.0 | 4.0 | 0.00 | 0.00 | 0.00 | 27 | 1004.2 |
| 20260504233011 | 80 | 252 | 5.0 | 8.0 | 0.00 | 0.00 | 0.00 | 27 | 1004.3 |
| 20260504232508 | 81 | 260 | 7.0 | 8.0 | 0.00 | 0.00 | 0.00 | 27 | 1004.4 |
| 20260504232006 | 81 | 285 | 7.0 | 8.0 | 0.00 | 0.00 | 0.00 | 28 | 1004.7 |
| 20260504231502 | 80 | 6 | 10.0 | 13.0 | 0.00 | 0.00 | 0.00 | 27 | 1004.4 |
| 20260504230958 | 80 | 246 | 4.0 | 7.0 | 0.00 | 0.00 | 0.00 | 27 | 1004.4 |
| 20260504230455 | 81 | 286 | 11.0 | 15.0 | 0.00 | 0.00 | 0.00 | 26 | 1004.3 |
| 20260504225954 | 81 | 352 | 6.0 | 8.0 | 0.00 | 0.00 | 0.00 | 27 | 1004.9 |
| 20260504225450 | 80 | 330 | 10.0 | 15.0 | 0.00 | 0.00 | 0.00 | 26 | 1004.4 |
| 20260504224948 | 80 | 292 | 11.0 | 14.0 | 0.00 | 0.00 | 0.00 | 26 | 1005.0 |
| 20260504224444 | 80 | 285 | 11.0 | 15.0 | 0.00 | 0.00 | 0.00 | 26 | 1004.9 |